Weather History for Spencer, IA

Change the Weather History Date:

Thursday, January 17, 2013

  Actual Average Record
Temperature  
Mean Temperature 22 °F -  
Max Temperature 35 °F 23 °F 42 °F (1981)
Min Temperature 9 °F 6 °F -20 °F (1977)
Degree Days  
Heating Degree Days 43    
Moisture  
Dew Point 14 °F    
Average Humidity 67    
Maximum Humidity 86    
Minimum Humidity 47    
Precipitation  
Precipitation 0.00 in - - ()
Sea Level Pressure  
Sea Level Pressure 30.40 in    
Wind  
Wind Speed 8 mph (NW)    
Max Wind Speed 15 mph    
Max Gust Speed 17 mph    
Visibility 10 miles    
Events      
Averages and records for this station are not official NWS values.
T = Trace of Precipitation, MM = Missing Value Source: NWS Daily Summary

Daily Weather History Graph

Daily Weather History Graph

Search for Another Location

Airport:

Trip Planner

Search our weather history database for the weather conditions in past years. The results will help you decide how hot, cold, wet, or windy it might be!

Date:

Astronomy

Jan. 17, 2013 Rise Set
Actual Time 7:48 AM CST 5:13 PM CST
Civil Twilight 7:17 AM CST 5:45 PM CST
Nautical Twilight 6:42 AM CST 6:20 PM CST
Astronomical Twilight 6:08 AM CST 6:54 PM CST
Moon 10:44 AM CST (1/17) No Moon Set
Length of Visible Light 10h 28m
Length of Day
9h 25m
Waxing Crescent, 38% of the Moon is Illuminated
Jan 17
Waxing Crescent
Jan 18
First Quarter
Jan 26
Full
Feb 3
Last Quarter
Feb 10
New

Hourly Weather History & Observations

Time (CST) Temp. Windchill Dew Point Humidity Pressure Visibility Wind Dir Wind Speed Gust Speed Precip Events Conditions
12:53 AM 12.9 °F -1.6 °F 1.9 °F 62% 30.33 in 10.0 mi NNW 12.7 mph - N/A   Clear
2:53 AM 10.0 °F -2.9 °F 1.9 °F 70% 30.38 in 10.0 mi NNW 9.2 mph - N/A   Clear
3:53 AM 9.0 °F -3.2 °F -0.0 °F 67% 30.40 in 10.0 mi NW 8.1 mph - N/A   Clear
5:53 AM 12.0 °F 2.7 °F -4.0 °F 49% 30.42 in 10.0 mi NNW 5.8 mph - N/A   Overcast
6:53 AM 12.9 °F 1.6 °F -0.9 °F 54% 30.44 in 10.0 mi North 8.1 mph - N/A   Overcast
7:53 AM 12.9 °F - -0.9 °F 54% 30.44 in 10.0 mi Calm Calm - N/A   Overcast
8:53 AM 14.0 °F - -0.0 °F 54% 30.46 in 10.0 mi Calm Calm - N/A   Overcast
9:53 AM 19.0 °F 9.0 °F 1.9 °F 47% 30.47 in 10.0 mi SW 8.1 mph - N/A   Overcast
10:53 AM 24.1 °F 13.1 °F 10.0 °F 55% 30.46 in 10.0 mi WSW 11.5 mph - N/A   Scattered Clouds
11:53 AM 30.0 °F 19.1 °F 17.1 °F 59% 30.44 in 10.0 mi WSW 15.0 mph - N/A   Clear
12:53 PM 33.1 °F 23.4 °F 21.0 °F 61% 30.42 in 10.0 mi West 13.8 mph - N/A   Clear
1:53 PM 35.1 °F 26.9 °F 23.0 °F 61% 30.41 in 10.0 mi NW 11.5 mph 17.3 mph N/A   Mostly Cloudy
2:22 PM 35.6 °F 27.1 °F 24.8 °F 65% 30.35 in 10.0 mi NNW 12.7 mph - N/A   Scattered Clouds
2:53 PM 35.1 °F 28.6 °F 23.0 °F 61% 30.40 in 10.0 mi NNW 8.1 mph - N/A   Partly Cloudy
3:53 PM 34.0 °F 28.8 °F 21.9 °F 61% 30.42 in 10.0 mi North 5.8 mph - N/A   Clear
4:53 PM 32.0 °F 27.5 °F 21.9 °F 66% 30.43 in 10.0 mi North 4.6 mph - N/A   Clear
5:53 PM 28.9 °F 25.2 °F 21.9 °F 75% 30.42 in 10.0 mi NE 3.5 mph - N/A   Mostly Cloudy
6:53 PM 25.0 °F - 21.0 °F 85% 30.43 in 10.0 mi Calm Calm - N/A   Mostly Cloudy
7:29 PM 26.6 °F 22.6 °F 23.0 °F 86% 30.35 in 10.0 mi SE 3.5 mph - N/A   Overcast
7:53 PM 28.0 °F 24.2 °F 23.0 °F 81% 30.41 in 10.0 mi SSE 3.5 mph - N/A   Overcast
8:38 PM 28.4 °F 21.2 °F 21.2 °F 74% 30.32 in 10.0 mi SE 6.9 mph - N/A   Overcast
8:53 PM 28.0 °F 20.8 °F 21.9 °F 78% 30.38 in 10.0 mi SE 6.9 mph - N/A   Overcast
9:53 PM 27.0 °F 18.0 °F 21.9 °F 81% 30.35 in 10.0 mi SSE 9.2 mph - N/A   Overcast
10:53 PM 27.0 °F 18.0 °F 23.0 °F 85% 30.30 in 10.0 mi SSE 9.2 mph - N/A   Overcast
11:53 PM 27.0 °F 17.3 °F 23.0 °F 85% 30.26 in 10.0 mi SE 10.4 mph - N/A   Scattered Clouds